Location: Unspecified
(44.0704°N, 88.6889°W)
Time: 11:26:58
(UTC+02:00)

Vanguard 2 Rocket - Pass Details

Date: 11 August 2020
Orbit: 554 x 3326 km, 32.9° (Epoch: 22 September)

Event Time Altitude Azimuth Distance (km) Brightness Sun altitude
Rises 07:26:22 0° 270° (W) 5,301 10.9 -30.3°
Reaches altitude 10° 07:30:18 10° 258° (WSW) 4,702 10.5 -30.4°
Enters shadow 07:38:15 24° 222° (SW) 4,289 9.9 -30.6°
